Regional Weather Roundup
Issued by NWS State College, PA

Home | Current Version | Previous Version | Graphics & Text | Print | Product List | Glossary Off
Versions: 1 2 3 4 5 6 7 8 9 10 11 12 13 14 15 16 17 18 19 20 21 22 23 24 25 26 27 28 29 30 31 32 33 34 35 36 37 38 39 40 41 42 43 44 45 46 47 48 49 50

000
ASUS41 KCTP 221110
RWRCTP

REGIONAL WEATHER ROUNDUP
NATIONAL WEATHER SERVICE STATE COLLEGE PA
700 AM EDT THU JUN 22 2017

Note: "fair" indicates few or no clouds below 12,000 feet with no
significant weather and/or obstructions to visibility.

* = STATION THAT DOES NOT REPORT PRECIPITATION /E.G. RAIN...SNOW...ETC/
    THUNDER OR FOG.

PAZ002>004-007>009-013>016-020>023-029>032-221200-
WESTERN PENNSYLVANIA

CITY           SKY/WX    TMP DP  RH WIND       PRES   REMARKS
ERIE           MOSUNNY   59  51  75 S7        29.99S
MEADVILLE      MOSUNNY   60  53  77 CALM      30.02F
FRANKLIN*      MOSUNNY   54  48  82 CALM      30.03S
NEW CASTLE     FAIR      60  58  92 CALM      30.02F
BEAVER COUNTY  PTSUNNY   63  57  82 SE5       30.02
BUTLER*        CLOUDY    61  57  88 CALM      30.03S
PITTSBURGH INT CLOUDY    64  62  93 CALM      30.02R
PITTSBURGH     MOSUNNY   66  63  90 S6        30.02R FOG
INDIANA*       SUNNY     63  63 100 CALM      30.07R
LATROBE        PTSUNNY   64  64 100 CALM      30.05R
WASHINGTON CO* CLOUDY    68  66  94 SW3       30.05R
$$

PAZ004>006-010>012-017>019-024>028-033>037-041-042-045-046-049>053-221200-
CENTRAL PENNSYLVANIA

CITY           SKY/WX    TMP DP  RH WIND       PRES   REMARKS
BRADFORD       CLOUDY    50  49  96 CALM      30.05S
DUBOIS         SUNNY     56  51  84 E3        30.04S
CLEARFIELD     SUNNY     56  54  93 CALM      30.05S
JOHNSTOWN      MOSUNNY   66  63  90 SW7       30.07R
ALTOONA        MOSUNNY   64  63  96 CALM      30.06R FOG
STATE COLLEGE  MOSUNNY   57  57 100 CALM      30.05R
WILLIAMSPORT   MOSUNNY   60  57  89 CALM      30.03R
SELINSGROVE    CLOUDY    59  58  96 CALM      30.04R
FT INDIANTOWN  CLOUDY    61  61 100 CALM      30.03R
CAPITAL CITY   MOSUNNY   69  64  84 CALM      30.02R
HARRISBURG     CLOUDY    70  66  87 CALM      30.01R
YORK           PTSUNNY   66  66 100 CALM      30.03R
$$

PAZ038>040-043-044-047-048-054-055-060>062-067>071-221200-
EASTERN PENNSYLVANIA

CITY           SKY/WX    TMP DP  RH WIND       PRES   REMARKS
SCRANTON       MOSUNNY   58  53  84 SE3       30.05R
MOUNT POCONO   MOSUNNY   56  55  97 CALM      30.07R
ALLENTOWN      MOSUNNY   62  59  90 N5        30.03R
QUAKERTOWN*    MOSUNNY   61  61 100 CALM      30.04R
READING        MOSUNNY   64  63  96 CALM      30.02R
LANCASTER      CLOUDY    67  66  97 CALM      30.02S FOG
COATESVILLE    PTSUNNY   68  64  88 CALM      30.04S
POTTSTOWN      CLOUDY    62  62 100 CALM      30.05R FOG
BLUE BELL      CLOUDY    61  61 100 CALM      30.04R
DOYLESTOWN     CLOUDY    63  62  97 CALM      30.02R
WILLOW GROVE   NOT AVBL
NORTH PHILA    CLOUDY    69  65  86 CALM      30.03R
PHILADELPHIA   PTSUNNY   71  65  81 VRB3      30.02R
$$




USA.gov is the U.S. government's official web portal to all federal, state and local government web resources and services.